DELTA 1 DEB, 7193

Orbit data source: Space-Track

DELTA 1 DEB, 7193 is space debris in SSO originally from a launch on Tue, 06 Nov 1973 UTC launched from the Air Force Western Test Range (AFWTR). Debris objects in space refer to the collection of defunct objects orbiting the Earth. Examples of debris include non-operational satellites, rocket bodies, and fragments generated from explosions, collisions, or faulty payload assembly.

Loading next visibility...
Identifier
7193, 1973-086FB
Orbit
SSO
Country
Flag of USUS
Related business
Manufacturer
Unknown
Mission
Spacecraft
Bus & Motor
Unknown
Mass
Unknown
Launch date (UTC)
1973-11-06 (53 years ago)
Launch vehicle
Unknown
Launch site
Air Force Western Test Range (AFWTR)
Object type
Payload
Rocket body
Debris
Shape & HBR
Unknown shape, 0.2 m
Radar Cross Section
Medium (>0.1 m² and <1 m²)

Expand to show TLE details & history
Last TLE update: 2 days ago

TLE from 2 days ago
0 DELTA 1 DEB
1  7193U 73086FB  26261.42624343 -.00000475  00000-0 -42306-2 0  9994
2  7193 101.8343 315.3238 0295357  28.1978 344.5930 12.09103841326067
Epoch: 2026-09-18T10:13Z
TLE epoch observation values (Epoch: 2026-09-18T10:13:47.432Z)
Latitude
11.56412°
Longitude
162.08178°
Altitude
1,414.283 km
Speed
7.255 km/s
True Right ascension
20h 51m 30s
True Declination
11° 30' 09"
Sunlit
Object was in full shadow at epoch
Visualization orbit readout
Latitude
Unknown
Longitude
Unknown
Altitude
Unknown
Speed
Unknown
Apparent Right ascension
Unknown
Apparent Declination
Unknown
Sunlit
N/A
Visualization observer readout
Local Sidereal Time
15:01:50
Azimuth
Unknown
Elevation
Unknown
Doppler factor
Unknown
Orbital elements
Apogee altitude
1,874.72 km
Perigee altitude
1,401.198 km
Semi-major axis
8,016.096 km
Eccentricity
0.02954
Inclination
101.8343°
RAAN
315.3238°
Arg. of periapsis
28.1978°
True anomaly
343.66072°
Mean anomaly
344.593°
Eccentric anomaly
344.13025°
Mean motion
3.02412 °/min
Orbital period
119.04 mins
BSTAR
-0.0042306
Loading maneuver chart data...
Computing Atmospheric mass density...
Loading historical data...
Loading historical data...
Loading historical data...
Loading historical data...
Loading historical data...
Loading historical data...
Loading historical data...

Documentation

Showing up to 5 results
|